Fargo, ND

9:18 PM CST on December 13, 2019 (GMT -0600)
Hector International

Weather History for KFAR - October, 2019

Change the Weather History Date:

Tuesday, October 1, 2019

  Actual Average Record
Temperature  
Mean Temperature 43 °F 52 °F  
Max Temperature 46 °F 64 °F 90 °F (1992)
Min Temperature 41 °F 41 °F 10 °F (1886)
Degree Days  
Heating Degree Days 22 13  
Month to date heating degree days 13  
Since 1 July heating degree days 283  
Cooling Degree Days 0 0  
Month to date cooling degree days 0  
Year to date cooling degree days 548  
Moisture  
Dew Point 39 °F    
Average Humidity 85    
Maximum Humidity 96    
Minimum Humidity 73    
Precipitation  
Precipitation 0.00 in 0.08 in 1.98 in (2009)
Month to date precipitation 0.08  
Year to date precipitation 18.68  
Snow  
Snow - 0.00 in T in (1996)
Month to date snowfall 0.0  
Since 1 July snowfall 0.0  
Since 1 September snowfall 0.0  
Snow Depth -    
Sea Level Pressure  
Sea Level Pressure 30.14 in    
Wind  
Wind Speed 9 mph ()    
Max Wind Speed 17 mph    
Max Gust Speed 23 mph    
Visibility 10.0 miles    
Events      
T = Trace of Precipitation, MM = Missing Value Source: Averaged Metar Reports

Daily Weather History Graph

Daily Weather History Graph

Search for Another Location

Airport or City:

Astronomy

Oct. 01, 2019 Rise Set
Actual Time 7:25 AM CDT 7:07 PM CDT
Civil Twilight 6:55 AM CDT 7:37 PM CDT
Nautical Twilight 6:20 AM CDT 8:12 PM CDT
Astronomical Twilight 5:44 AM CDT 8:48 PM CDT
Moon 10:54 AM CDT (10/1) 9:08 PM CDT (10/1)
Length of Visible Light 12h 42m
Length of Day
11h 41m
Waxing Crescent, 12% of the Moon is Illuminated
Oct 1
Waxing Crescent
Oct 5
First Quarter
Oct 13
Full
Oct 21
Last Quarter
Oct 27
New

Hourly Weather History & Observations

Time (CDT) Temp. Windchill Dew Point Humidity Pressure Visibility Wind Dir Wind Speed Gust Speed Precip Events Conditions
12:53 AM 44.1 °F 40.8 °F 43.0 °F 96% 30.03 in 10.0 mi NNW 5.8 mph - N/A   Mostly Cloudy
1:09 AM 43.0 °F 38.8 °F 41.0 °F 93% 30.02 in 10.0 mi NNW 6.9 mph - N/A   Scattered Clouds
1:28 AM 44.1 °F 42.5 °F 43.0 °F 96% 30.04 in 10.0 mi WNW 3.5 mph - N/A   Mostly Cloudy
1:53 AM 45.0 °F 41.2 °F 43.0 °F 93% 30.05 in 10.0 mi NNW 6.9 mph - N/A   Overcast
2:32 AM 45.0 °F 39.7 °F 42.1 °F 90% 30.07 in 10.0 mi NNW 10.4 mph - N/A   Mostly Cloudy
2:53 AM 45.0 °F 38.5 °F 42.1 °F 90% 30.08 in 10.0 mi NNW 13.8 mph - N/A   Overcast
3:53 AM 44.1 °F 39.0 °F 41.0 °F 89% 30.09 in 10.0 mi NNW 9.2 mph - N/A   Mostly Cloudy
4:53 AM 44.1 °F 40.1 °F 42.1 °F 93% 30.11 in 10.0 mi NNW 6.9 mph - N/A   Partly Cloudy
5:53 AM 44.1 °F 39.0 °F 41.0 °F 89% 30.13 in 10.0 mi NNW 9.2 mph - N/A   Overcast
6:07 AM 44.1 °F 39.0 °F 41.0 °F 89% 30.11 in 10.0 mi North 9.2 mph - N/A   Overcast
6:18 AM 43.0 °F 36.8 °F 39.9 °F 89% 30.11 in 10.0 mi North 11.5 mph - N/A   Overcast
6:28 AM 43.0 °F 37.2 °F 39.9 °F 89% 30.11 in 10.0 mi North 10.4 mph - N/A   Overcast
6:53 AM 42.1 °F 36.1 °F 39.0 °F 89% 30.12 in 10.0 mi North 10.4 mph - N/A   Mostly Cloudy
7:51 AM 42.8 °F 38.6 °F 39.2 °F 87% 30.15 in 10.0 mi NNW 6.9 mph - N/A   Overcast
7:53 AM 42.1 °F 37.7 °F 39.0 °F 89% 30.17 in 10.0 mi NW 6.9 mph - N/A   Overcast
8:17 AM 41.0 °F 33.9 °F 37.9 °F 89% 30.13 in 10.0 mi North 12.7 mph - N/A   Mostly Cloudy
8:44 AM 41.0 °F 33.9 °F 37.9 °F 89% 30.16 in 10.0 mi NNW 12.7 mph - N/A   Overcast
8:53 AM 41.0 °F 33.9 °F 37.9 °F 89% 30.18 in 10.0 mi NNW 12.7 mph - N/A   Overcast
9:53 AM 41.0 °F 34.3 °F 37.9 °F 89% 30.17 in 10.0 mi North 11.5 mph - N/A   Overcast
10:53 AM 42.1 °F 33.9 °F 37.0 °F 82% 30.18 in 10.0 mi North 17.3 mph - N/A   Mostly Cloudy
11:53 AM 44.1 °F 38.1 °F 37.9 °F 79% 30.18 in 10.0 mi North 11.5 mph - N/A   Overcast
12:53 PM 45.0 °F 38.2 °F 37.0 °F 74% 30.18 in 10.0 mi North 15.0 mph - N/A   Mostly Cloudy
1:53 PM 45.0 °F 38.5 °F 37.9 °F 76% 30.18 in 10.0 mi North 13.8 mph 20.7 mph N/A   Overcast
2:53 PM 45.0 °F 37.6 °F 37.0 °F 74% 30.17 in 10.0 mi North 17.3 mph - N/A   Overcast
3:53 PM 45.0 °F 38.5 °F 37.0 °F 74% 30.17 in 10.0 mi North 13.8 mph - N/A   Overcast
4:53 PM 45.0 °F 37.9 °F 37.0 °F 74% 30.18 in 10.0 mi North 16.1 mph 23.0 mph N/A   Overcast
5:53 PM 44.1 °F 36.8 °F 36.0 °F 73% 30.18 in 10.0 mi North 16.1 mph - N/A   Overcast
6:53 PM 43.0 °F 35.1 °F 36.0 °F 76% 30.18 in 10.0 mi North 17.3 mph - N/A   Overcast
7:53 PM 42.1 °F 35.2 °F 36.0 °F 79% 30.19 in 10.0 mi North 12.7 mph - N/A   Overcast
8:53 PM 43.0 °F 36.8 °F 37.0 °F 80% 30.20 in 10.0 mi North 11.5 mph - N/A   Overcast
9:53 PM 42.1 °F 35.2 °F 37.0 °F 82% 30.21 in 10.0 mi North 12.7 mph - N/A   Scattered Clouds
10:53 PM 42.1 °F 34.9 °F 37.0 °F 82% 30.21 in 10.0 mi North 13.8 mph - N/A   Overcast
11:53 PM 42.1 °F 35.7 °F 37.9 °F 85% 30.22 in 10.0 mi North 11.5 mph - N/A   Overcast